• En España
  • Lista de países
  • Para 7 días
  • Temperatura del agua
  • Mapa Satelital
  • El tiempo en el mapa
  • Informadores
  • user-avatar
    Iniciar sesión

    Tiempo cada hora Turny

    Hoy, 21 Mayo, Lunes

    Tiempo Temperatura Precipitaciones Viento Presión Humedad
    00:00 +8°C° 0 mm 1 mps 751 mmHg 70%
    01:00 +8°C° 0 mm 1 mps 752 mmHg 71%
    02:00 +6°C° 0 mm 0 mps 752 mmHg 78%
    03:00 +6°C° 0 mm 0 mps 752 mmHg 76%
    04:00 +7°C° 0 mm 0 mps 753 mmHg 73%
    05:00 +8°C° 0 mm 0 mps 753 mmHg 71%
    06:00 +11°C° 0 mm 0 mps 753 mmHg 63%
    07:00 +14°C° 0 mm 0 mps 753 mmHg 55%
    08:00 +17°C° 0 mm 0 mps 754 mmHg 46%
    09:00 +18°C° 0 mm 0 mps 754 mmHg 42%
    10:00 +22°C° 0 mm 1 mps 754 mmHg 38%
    11:00 +23°C° 0 mm 1 mps 754 mmHg 34%
    12:00 +23°C° 0 mm 1 mps 754 mmHg 33%
    13:00 +24°C° 0 mm 1 mps 754 mmHg 32%
    14:00 +24°C° 0 mm 1 mps 753 mmHg 31%
    15:00 +24°C° 0 mm 1 mps 753 mmHg 32%
    16:00 +24°C° 0 mm 1 mps 753 mmHg 34%
    17:00 +23°C° 0 mm 1 mps 752 mmHg 36%
    18:00 +21°C° 0 mm 1 mps 752 mmHg 45%
    19:00 +18°C° 0 mm 1 mps 753 mmHg 53%
    20:00 +15°C° 0 mm 1 mps 753 mmHg 61%
    21:00 +14°C° 0 mm 1 mps 753 mmHg 64%
    22:00 +13°C° 0 mm 1 mps 753 mmHg 67%
    23:00 +12°C° 0 mm 1 mps 753 mmHg 69%

    Mañana, 22 Mayo, Martes

    Tiempo Temperatura Precipitaciones Viento Presión Humedad
    00:00 +12°C° 0 mm 1 mps 753 mmHg 72%
    01:00 +11°C° 0 mm 1 mps 753 mmHg 74%
    02:00 +11°C° 0 mm 1 mps 753 mmHg 77%
    03:00 +11°C° 0 mm 1 mps 753 mmHg 76%
    04:00 +12°C° 0 mm 1 mps 753 mmHg 76%
    05:00 +12°C° 0 mm 1 mps 753 mmHg 75%
    06:00 +14°C° 0 mm 2 mps 753 mmHg 67%
    07:00 +16°C° 0 mm 2 mps 753 mmHg 59%
    08:00 +18°C° 0 mm 2 mps 753 mmHg 51%
    09:00 +19°C° 0 mm 3 mps 752 mmHg 47%
    10:00 +20°C° 0 mm 3 mps 752 mmHg 42%
    11:00 +21°C° 0 mm 3 mps 752 mmHg 38%
    12:00 +21°C° 0 mm 3 mps 751 mmHg 39%
    13:00 +21°C° 0 mm 3 mps 751 mmHg 41%
    14:00 +20°C° 0 mm 3 mps 750 mmHg 42%
    15:00 +19°C° 0 mm 2 mps 750 mmHg 47%
    16:00 +19°C° 0 mm 2 mps 749 mmHg 52%
    17:00 +18°C° 0 mm 2 mps 749 mmHg 57%
    18:00 +18°C° 0,1 mm 1 mps 749 mmHg 64%
    19:00 +15°C° 0,1 mm 1 mps 749 mmHg 71%
    20:00 +14°C° 0,1 mm 1 mps 748 mmHg 79%
    21:00 +14°C° 0,2 mm 1 mps 748 mmHg 84%
    22:00 +13°C° 0,2 mm 2 mps 748 mmHg 89%
    23:00 +13°C° 0,2 mm 2 mps 748 mmHg 94%

    Pasado mañana, 23 Mayo, Miércoles

    Tiempo Temperatura Precipitaciones Viento Presión Humedad
    00:00 +13°C° 0 mm 2 mps 748 mmHg 95%
    01:00 +12°C° 0 mm 2 mps 748 mmHg 96%
    02:00 +12°C° 0 mm 2 mps 748 mmHg 97%
    03:00 +12°C° 0 mm 2 mps 748 mmHg 96%
    04:00 +13°C° 0 mm 2 mps 748 mmHg 96%
    05:00 +13°C° 0 mm 2 mps 748 mmHg 95%
    06:00 +14°C° 0 mm 2 mps 748 mmHg 92%
    07:00 +14°C° 0 mm 2 mps 748 mmHg 89%
    08:00 +15°C° 0 mm 2 mps 748 mmHg 86%
    09:00 +17°C° 0,1 mm 2 mps 748 mmHg 79%
    10:00 +18°C° 0,1 mm 2 mps 747 mmHg 72%
    11:00 +19°C° 0,1 mm 2 mps 747 mmHg 65%
    12:00 +20°C° 0,3 mm 2 mps 747 mmHg 62%
    13:00 +21°C° 0,3 mm 2 mps 747 mmHg 60%
    14:00 +21°C° 0,3 mm 2 mps 747 mmHg 58%
    15:00 +21°C° 0,6 mm 2 mps 746 mmHg 64%
    16:00 +21°C° 0,6 mm 1 mps 746 mmHg 69%
    17:00 +20°C° 0,6 mm 1 mps 746 mmHg 75%
    18:00 +19°C° 0,1 mm 1 mps 746 mmHg 80%
    19:00 +16°C° 0,1 mm 1 mps 746 mmHg 85%
    20:00 +15°C° 0,1 mm 1 mps 746 mmHg 89%
    21:00 +14°C° 0 mm 1 mps 746 mmHg 91%
    22:00 +14°C° 0 mm 1 mps 746 mmHg 92%
    23:00 +13°C° 0 mm 1 mps 747 mmHg 93%

    24 Mayo, Jueves

    Tiempo Temperatura Precipitaciones Viento Presión Humedad
    00:00 +13°C° 0 mm 1 mps 747 mmHg 93%
    01:00 +12°C° 0 mm 1 mps 747 mmHg 94%
    02:00 +12°C° 0 mm 1 mps 747 mmHg 94%
    03:00 +12°C° 0 mm 1 mps 747 mmHg 93%
    04:00 +12°C° 0 mm 1 mps 747 mmHg 93%
    05:00 +12°C° 0 mm 1 mps 748 mmHg 92%
    06:00 +14°C° 0 mm 2 mps 748 mmHg 86%
    07:00 +15°C° 0 mm 2 mps 748 mmHg 81%
    08:00 +17°C° 0 mm 3 mps 749 mmHg 75%
    09:00 +16°C° 0,1 mm 3 mps 749 mmHg 75%
    10:00 +15°C° 0,1 mm 4 mps 749 mmHg 75%
    11:00 +15°C° 0,1 mm 4 mps 750 mmHg 74%
    12:00 +15°C° 0,1 mm 4 mps 750 mmHg 72%
    13:00 +14°C° 0,1 mm 4 mps 750 mmHg 69%
    14:00 +14°C° 0,1 mm 4 mps 751 mmHg 66%
    15:00 +14°C° 0 mm 4 mps 751 mmHg 59%
    16:00 +15°C° 0 mm 4 mps 751 mmHg 53%
    17:00 +17°C° 0 mm 4 mps 752 mmHg 46%
    18:00 +14°C° 0 mm 3 mps 752 mmHg 51%
    19:00 +12°C° 0 mm 3 mps 752 mmHg 56%
    20:00 +11°C° 0 mm 3 mps 753 mmHg 60%
    21:00 +9°C° 0 mm 2 mps 753 mmHg 61%
    22:00 +8°C° 0 mm 2 mps 754 mmHg 61%
    23:00 +7°C° 0 mm 2 mps 754 mmHg 61%

    25 Mayo, Viernes

    Tiempo Temperatura Precipitaciones Viento Presión Humedad
    00:00 +6°C° 0 mm 2 mps 754 mmHg 61%
    01:00 +5°C° 0 mm 2 mps 755 mmHg 62%
    02:00 +4°C° 0 mm 2 mps 755 mmHg 63%
    03:00 +5°C° 0 mm 2 mps 755 mmHg 62%
    04:00 +5°C° 0 mm 2 mps 756 mmHg 61%
    05:00 +6°C° 0 mm 2 mps 756 mmHg 60%
    06:00 +8°C° 0 mm 2 mps 756 mmHg 53%
    07:00 +10°C° 0 mm 2 mps 757 mmHg 45%
    08:00 +13°C° 0 mm 2 mps 757 mmHg 38%
    09:00 +14°C° 0 mm 2 mps 757 mmHg 36%
    10:00 +16°C° 0 mm 2 mps 757 mmHg 34%
    11:00 +17°C° 0 mm 2 mps 757 mmHg 32%
    12:00 +18°C° 0 mm 2 mps 757 mmHg 32%
    13:00 +18°C° 0 mm 2 mps 756 mmHg 31%
    14:00 +19°C° 0 mm 2 mps 756 mmHg 31%
    15:00 +19°C° 0 mm 2 mps 756 mmHg 33%
    16:00 +19°C° 0 mm 2 mps 756 mmHg 35%
    17:00 +19°C° 0 mm 2 mps 756 mmHg 36%
    18:00 +17°C° 0 mm 2 mps 756 mmHg 44%
    19:00 +15°C° 0 mm 1 mps 756 mmHg 53%
    20:00 +13°C° 0 mm 1 mps 756 mmHg 61%
    21:00 +12°C° 0 mm 1 mps 756 mmHg 62%
    22:00 +11°C° 0 mm 1 mps 756 mmHg 63%
    23:00 +10°C° 0 mm 1 mps 756 mmHg 64%

    26 Mayo, Sábado

    Tiempo Temperatura Precipitaciones Viento Presión Humedad
    00:00 +10°C° 0 mm 1 mps 756 mmHg 66%
    01:00 +9°C° 0 mm 1 mps 757 mmHg 67%
    02:00 +9°C° 0 mm 1 mps 757 mmHg 68%
    03:00 +9°C° 0 mm 1 mps 757 mmHg 67%
    04:00 +9°C° 0 mm 2 mps 757 mmHg 66%
    05:00 +9°C° 0 mm 2 mps 758 mmHg 65%
    06:00 +12°C° 0 mm 2 mps 758 mmHg 59%
    07:00 +15°C° 0 mm 2 mps 758 mmHg 53%
    08:00 +17°C° 0 mm 3 mps 758 mmHg 47%
    09:00 +18°C° 0 mm 3 mps 758 mmHg 43%
    10:00 +20°C° 0 mm 3 mps 758 mmHg 40%
    11:00 +21°C° 0 mm 3 mps 758 mmHg 37%
    12:00 +21°C° 0 mm 3 mps 757 mmHg 37%
    13:00 +22°C° 0 mm 3 mps 757 mmHg 37%
    14:00 +22°C° 0 mm 3 mps 757 mmHg 37%
    15:00 +22°C° 0 mm 3 mps 756 mmHg 39%
    16:00 +22°C° 0 mm 3 mps 756 mmHg 41%
    17:00 +21°C° 0 mm 3 mps 755 mmHg 44%
    18:00 +19°C° 0 mm 3 mps 755 mmHg 53%
    19:00 +17°C° 0 mm 2 mps 755 mmHg 62%
    20:00 +15°C° 0 mm 2 mps 755 mmHg 71%
    21:00 +14°C° 0 mm 2 mps 755 mmHg 73%
    22:00 +13°C° 0 mm 2 mps 755 mmHg 76%
    23:00 +13°C° 0 mm 2 mps 755 mmHg 79%
    Mostrar más